Total_Precipitation_Accumulation
0.04 0.01 0.02 0.02 0.06 0.07 0.06 0.08 0.11 0.12 0.11 0.10 0.10 0.11 0.12 0.10 0.08 0.07 0.06 0.09 0.12 0.18 0.22 0.23 0.20 0.17 0.17 0.17 0.14 0.10 0.08 0.07 0.10 0.11 0.14 0.16 0.17 0.17 0.17 0.18 0.22 0.21 0.12
0.03 0.01 0.01 0.01 0.03 0.05 0.06 0.09 0.10 0.11 0.12 0.13 0.13 0.15 0.14 0.10 0.08 0.07 0.07 0.10 0.15 0.20 0.20 0.20 0.18 0.16 0.16 0.14 0.10 0.08 0.07 0.08 0.12 0.17 0.21 0.23 0.27 0.22 0.20 0.19 0.25 0.29 0.19
0.02 0.00 0.01 0.01 0.02 0.04 0.06 0.09 0.09 0.09 0.11 0.12 0.13 0.12 0.10 0.08 0.07 0.06 0.06 0.10 0.14 0.16 0.14 0.11 0.09 0.09 0.09 0.08 0.06 0.06 0.07 0.10 0.16 0.27 0.50 0.44 0.33 0.22 0.21 0.20 0.17 0.15 0.18
0.02 0.01 0.00 0.01 0.02 0.03 0.04 0.07 0.10 0.10 0.10 0.10 0.10 0.09 0.08 0.07 0.07 0.07 0.08 0.10 0.12 0.11 0.08 0.05 0.05 0.05 0.05 0.05 0.05 0.05 0.08 0.12 0.22 0.43 0.89 0.70 0.45 0.29 0.24 0.22 0.18 0.15 0.17
0.02 0.01 0.02 0.01 0.03 0.05 0.04 0.04 0.08 0.12 0.12 0.11 0.11 0.11 0.11 0.10 0.09 0.08 0.09 0.10 0.11 0.10 0.11 0.10 0.08 0.04 0.04 0.04 0.04 0.07 0.10 0.16 0.30 0.65 1.12 1.00 0.77 0.50 0.32 0.28 0.29 0.23 0.21
0.02 0.01 0.01 0.02 0.03 0.06 0.06 0.06 0.07 0.10 0.13 0.14 0.13 0.13 0.12 0.12 0.10 0.08 0.09 0.10 0.10 0.11 0.14 0.16 0.11 0.05 0.04 0.04 0.05 0.08 0.13 0.20 0.37 0.73 1.17 1.18 0.85 0.51 0.36 0.33 0.33 0.29 0.23
0.03 0.02 0.02 0.04 0.05 0.06 0.08 0.09 0.10 0.09 0.11 0.15 0.15 0.13 0.12 0.12 0.11 0.11 0.11 0.09 0.11 0.15 0.17 0.14 0.08 0.03 0.03 0.04 0.06 0.09 0.16 0.27 0.46 0.91 1.21 1.09 0.99 0.58 0.42 0.38 0.37 0.31 0.23
0.07 0.04 0.04 0.06 0.06 0.08 0.10 0.11 0.15 0.15 0.14 0.16 0.15 0.13 0.12 0.10 0.11 0.13 0.12 0.12 0.14 0.18 0.17 0.09 0.04 0.02 0.02 0.03 0.05 0.09 0.19 0.25 0.39 0.86 1.18 0.92 0.74 0.49 0.38 0.37 0.36 0.30 0.25
0.10 0.10 0.07 0.06 0.07 0.09 0.13 0.12 0.15 0.17 0.17 0.15 0.14 0.15 0.15 0.16 0.17 0.17 0.16 0.15 0.17 0.18 0.12 0.05 0.02 0.02 0.02 0.02 0.03 0.07 0.14 0.22 0.41 0.61 0.67 0.66 0.54 0.42 0.34 0.26 0.20 0.18 0.18
0.19 0.21 0.15 0.09 0.08 0.07 0.05 0.09 0.12 0.16 0.18 0.15 0.12 0.14 0.16 0.15 0.14 0.14 0.12 0.13 0.14 0.13 0.09 0.05 0.04 0.03 0.02 0.01 0.02 0.04 0.09 0.15 0.25 0.47 0.67 0.57 0.40 0.39 0.40 0.28 0.19 0.15 0.14
0.27 0.35 0.19 0.12 0.12 0.11 0.06 0.05 0.08 0.13 0.15 0.12 0.09 0.10 0.11 0.20 0.24 0.21 0.13 0.14 0.12 0.10 0.09 0.07 0.05 0.03 0.02 0.01 0.02 0.03 0.04 0.09 0.25 0.52 0.73 0.59 0.40 0.42 0.40 0.33 0.23 0.18 0.16
0.32 0.38 0.27 0.17 0.13 0.17 0.13 0.12 0.11 0.09 0.11 0.11 0.16 0.14 0.19 0.38 0.47 0.35 0.32 0.22 0.16 0.13 0.11 0.09 0.07 0.04 0.02 0.03 0.02 0.02 0.03 0.08 0.27 0.50 0.53 0.42 0.39 0.44 0.49 0.40 0.29 0.23 0.21
0.46 0.43 0.41 0.35 0.32 0.39 0.37 0.30 0.26 0.24 0.29 0.27 0.35 0.38 0.45 0.55 0.47 0.45 0.53 0.34 0.24 0.18 0.18 0.17 0.08 0.07 0.06 0.07 0.07 0.05 0.06 0.11 0.23 0.35 0.37 0.35 0.39 0.49 0.57 0.49 0.39 0.34 0.31
0.69 0.62 0.58 0.56 0.49 0.51 0.56 0.52 0.42 0.40 0.44 0.45 0.52 0.49 0.62 0.69 0.64 0.59 0.62 0.49 0.43 0.38 0.38 0.32 0.23 0.19 0.14 0.10 0.09 0.10 0.11 0.12 0.19 0.27 0.36 0.37 0.40 0.52 0.61 0.61 0.52 0.43 0.39
0.85 0.86 0.73 0.65 0.60 0.67 0.74 0.68 0.56 0.52 0.53 0.54 0.63 0.62 0.66 0.70 0.73 0.76 0.65 0.62 0.55 0.55 0.53 0.41 0.38 0.35 0.25 0.23 0.19 0.17 0.18 0.16 0.18 0.24 0.35 0.41 0.42 0.52 0.64 0.69 0.64 0.58 0.56
0.70 0.84 0.94 0.86 0.80 0.79 0.81 0.76 0.66 0.57 0.62 0.64 0.73 0.71 0.68 0.77 0.94 0.97 0.90 0.88 0.82 0.82 0.86 0.71 0.60 0.58 0.48 0.44 0.39 0.36 0.31 0.27 0.32 0.38 0.49 0.51 0.47 0.50 0.63 0.74 0.76 0.77 0.78
0.81 0.92 1.09 1.09 1.08 1.05 1.06 1.05 0.93 0.83 0.80 0.84 0.92 0.97 0.84 0.88 1.09 1.13 1.21 1.18 1.12 1.12 1.17 1.15 1.00 0.92 0.82 0.76 0.66 0.51 0.46 0.44 0.46 0.53 0.61 0.68 0.62 0.58 0.58 0.65 0.72 0.80 0.83
0.79 0.93 0.95 1.05 1.11 1.23 1.37 1.42 1.23 1.20 1.18 1.17 1.13 1.16 1.07 1.08 1.23 1.40 1.46 1.42 1.39 1.39 1.47 1.50 1.42 1.24 1.11 0.99 0.92 0.76 0.68 0.65 0.61 0.67 0.77 0.90 0.99 0.93 0.82 0.74 0.74 0.78 0.83
0.73 0.97 1.07 1.18 1.36 1.40 1.50 1.64 1.62 1.65 1.63 1.55 1.56 1.51 1.56 1.58 1.55 1.64 1.74 1.80 1.80 1.86 1.88 1.80 1.77 1.54 1.44 1.34 1.19 1.08 0.91 0.86 0.83 0.75 0.81 0.85 0.91 0.94 0.93 0.85 0.77 0.76 0.82
0.84 1.04 1.20 1.37 1.62 1.88 1.90 1.99 1.93 2.08 2.24 2.25 2.27 2.24 2.11 2.13 2.17 2.25 2.21 2.22 2.23 2.29 2.20 2.16 2.12 1.91 1.71 1.63 1.33 1.18 1.08 1.00 0.94 0.88 0.82 0.77 0.76 0.74 0.75 0.78 0.82 0.76 0.76
1.34 1.36 1.41 1.46 1.67 1.88 2.17 2.44 2.59 2.66 2.89 2.98 3.01 3.15 3.15 3.10 3.18 3.19 3.09 2.96 2.81 2.67 2.52 2.42 2.25 2.09 1.90 1.76 1.59 1.30 1.01 0.83 0.83 0.80 0.78 0.77 0.73 0.69 0.69 0.72 0.69 0.64 0.66
1.61 1.59 1.68 1.75 1.95 2.20 2.55 2.94 3.35 3.53 3.68 3.67 3.68 3.87 3.99 4.00 4.12 4.21 4.09 3.86 3.66 3.29 2.85 2.52 2.30 2.17 1.98 1.89 1.75 1.62 1.23 0.91 0.71 0.60 0.63 0.66 0.66 0.67 0.64 0.61 0.58 0.59 0.59
1.66 1.74 1.83 2.09 2.46 2.89 3.34 3.79 4.18 4.46 4.51 4.45 4.19 4.21 4.33 4.33 4.36 4.52 4.50 4.21 3.80 3.25 2.75 2.55 2.42 2.25 2.09 1.97 1.80 1.75 1.49 1.21 0.89 0.65 0.56 0.51 0.51 0.49 0.48 0.49 0.48 0.51 0.51
1.66 1.84 1.96 2.26 2.77 3.22 3.67 4.28 4.74 5.00 5.15 5.24 5.04 4.74 4.58 4.43 4.31 4.21 4.08 3.69 3.22 2.85 2.56 2.44 2.38 2.18 2.10 1.95 1.83 1.58 1.37 1.20 1.02 0.80 0.61 0.49 0.42 0.37 0.34 0.35 0.36 0.38 0.39
1.60 1.65 1.76 2.15 2.73 3.45 4.14 4.64 5.10 5.43 5.51 5.44 5.11 4.74 4.36 4.04 3.66 3.32 2.99 2.74 2.58 2.36 2.14 2.01 1.94 1.86 1.72 1.59 1.55 1.46 1.33 1.16 0.96 0.78 0.67 0.57 0.51 0.45 0.39 0.36 0.35 0.33 0.32
1.33 1.50 1.74 2.09 2.76 3.51 4.10 4.57 4.91 5.22 5.22 4.92 4.50 4.03 3.72 3.37 2.95 2.58 2.39 2.17 2.00 1.80 1.57 1.42 1.35 1.36 1.38 1.40 1.41 1.36 1.27 1.18 1.04 0.92 0.80 0.67 0.61 0.57 0.48 0.42 0.38 0.36 0.35